MDT,Max TemperatureF,Mean TemperatureF,Min TemperatureF,Max Dew PointF,MeanDew PointF,Min DewpointF,Max Humidity, Mean Humidity, Min Humidity, Max Sea Level PressureIn, Mean Sea Level PressureIn, Min Sea Level PressureIn, Max VisibilityMiles, Mean VisibilityMiles, Min VisibilityMiles, Max Wind SpeedMPH, Mean Wind SpeedMPH, Max Gust SpeedMPH,PrecipitationIn, CloudCover, Events, WindDirDegrees
2011-10-1,83,66,48,42,34,30,50,33,16,29.97,29.87,29.81,10,10,4,25,11,35,0.00,1,Thunderstorm,185
2011-10-2,77,62,47,42,37,31,66,42,18,29.95,29.90,29.85,10,10,7,17,7,22,0.00,1,,193
2011-10-3,80,61,41,38,33,29,58,39,19,29.99,29.88,29.75,10,9,2,31,11,44,0.00,1,,170
2011-10-4,70,59,48,47,43,38,93,64,35,29.71,29.63,29.55,10,10,6,28,15,33,0.25,5,Rain,171
2011-10-5,57,51,45,46,42,38,100,78,55,29.63,29.46,29.39,10,9,0,23,11,32,0.02,7,Fog-Rain,113
2011-10-6,50,46,42,43,39,36,83,72,61,29.67,29.53,29.39,10,10,10,24,7,29,0.04,8,Rain,7
2011-10-7,54,47,40,40,36,33,89,68,46,30.04,29.83,29.66,10,10,8,20,8,23,0.04,8,Rain,206
2011-10-8,52,42,31,37,33,28,92,68,44,30.24,30.18,30.04,10,10,10,14,3,16,0.00,6,,170
2011-10-9,58,44,30,32,28,23,85,55,25,30.21,30.06,29.92,10,10,10,14,8,17,0.00,0,,199
2011-10-10,59,46,33,39,32,28,82,59,36,29.91,29.79,29.69,10,10,10,22,9,30,T,5,,193
2011-10-11,55,47,38,41,35,30,82,68,54,30.06,29.83,29.70,10,10,6,32,10,40,0.06,5,Rain,220
2011-10-12,58,46,33,29,27,24,70,49,28,30.17,30.11,30.04,10,10,9,22,10,26,0.00,2,,211
2011-10-13,56,45,33,27,23,17,70,45,20,30.14,30.05,29.99,10,10,8,17,7,23,T,5,,199
2011-10-14,69,54,38,35,34,31,85,56,27,30.05,29.95,29.84,10,10,9,25,6,38,0.00,6,,187
2011-10-15,69,54,39,39,35,32,82,56,29,29.99,29.87,29.80,10,10,9,23,10,29,0.00,1,,198
2011-10-16,54,43,32,43,38,32,92,78,64,30.14,30.00,29.91,10,10,7,20,7,28,0.23,5,Rain,164
2011-10-17,53,40,27,30,26,19,92,60,28,30.41,30.34,30.20,10,10,10,15,7,20,0.00,2,,214
2011-10-18,59,42,25,30,25,21,75,52,29,30.51,30.37,30.22,10,10,10,12,5,13,0.00,0,,196
2011-10-19,55,44,32,33,28,25,75,54,32,30.18,30.03,29.92,10,10,10,15,6,17,0.00,0,,190
2011-10-20,61,47,33,37,31,28,75,56,36,30.09,30.03,29.98,10,10,10,18,10,30,T,3,,206
2011-10-21,57,48,39,41,35,32,79,60,40,30.19,30.14,30.05,10,10,9,21,10,25,0.02,6,Rain,219
2011-10-22,48,46,43,36,35,34,76,68,60,30.19,30.16,30.13,10,10,10,20,14,30,0.00,0,,210
2011-10-23,,,,,,,,,,,,,,,,,,,,,,
2011-10-24,54,41,27,30,21,15,58,49,40,30.14,30.07,29.96,10,10,10,16,7,21,0.00,7,,40
2011-10-25,42,30,18,20,16,12,77,54,30,30.43,30.31,30.18,10,10,10,15,5,18,0.00,2,,135
2011-10-26,45,30,14,19,11,3,89,46,18,30.49,30.30,30.14,10,10,10,15,9,26,0.00,2,,202
2011-10-27,49,36,23,16,12,8,55,44,33,30.24,30.14,30.07,10,10,9,23,12,31,T,0,Snow,209
2011-10-28,56,38,19,16,12,5,68,40,12,30.36,30.21,30.01,10,10,10,18,10,25,0.00,0,,206
2011-10-29,54,44,33,21,18,12,48,36,24,30.17,30.03,29.87,10,10,10,38,13,49,T,1,,234
2011-10-30,63,44,25,28,22,17,59,41,23,30.30,30.14,29.99,10,10,10,24,11,29,0.00,0,,217
2011-10-31,57,43,28,33,25,14,67,48,29,30.10,29.95,29.88,10,10,10,28,11,33,T,6,,266